SXS5HJ LTAI-LTBJ

Flight info

Callsign SXS5HJ
Flight time 0h 53m
Altitude 28000
Route EVBOL1F/36R EVBOL UT489 KAVAK UT283 OKESA
Aircraft B738/M-SDE2E3FGHIRWXY/LB1

Departure

Time 2026-05-07 16:45
Airport Antalya International Airport (LTAI)

Arrival

Time 2026-05-07 17:38
Airport Adnan Menderes International Airport (LTBJ)
Time Latitude Longitude Altitude Speed Heading
2026-05-07 16:24 36.89324 30.80102 184 ft 0 kts
2026-05-07 16:30 36.89322 30.80102 184 ft 1 kts
2026-05-07 16:30 36.89307 30.80100 184 ft 2 kts
2026-05-07 16:30 36.89292 30.80099 184 ft 2 kts
2026-05-07 16:31 36.89277 30.80097 184 ft 2 kts 12°
2026-05-07 16:31 36.89264 30.80088 184 ft 2 kts 45°
2026-05-07 16:31 36.89256 30.80072 184 ft 2 kts 73°
2026-05-07 16:31 36.89255 30.80053 184 ft 2 kts 102°
2026-05-07 16:32 36.89257 30.80035 184 ft 2 kts 95°
2026-05-07 16:32 36.89258 30.80030 184 ft 0 kts 95°
2026-05-07 16:37 36.89257 30.80031 184 ft 0 kts 95°
2026-05-07 16:37 36.89256 30.80049 184 ft 5 kts 96°
2026-05-07 16:37 36.89247 30.80144 184 ft 15 kts 95°
2026-05-07 16:37 36.89233 30.80313 184 ft 24 kts 96°
2026-05-07 16:38 36.89214 30.80522 184 ft 23 kts 96°
2026-05-07 16:38 36.89171 30.80625 184 ft 11 kts 167°
2026-05-07 16:38 36.89094 30.80623 184 ft 13 kts 187°
2026-05-07 16:38 36.88976 30.80607 184 ft 19 kts 187°
2026-05-07 16:39 36.88846 30.80589 184 ft 17 kts 186°
2026-05-07 16:39 36.88724 30.80573 184 ft 18 kts 185°
2026-05-07 16:39 36.88575 30.80552 184 ft 23 kts 189°
2026-05-07 16:39 36.88398 30.80527 184 ft 27 kts 186°
2026-05-07 16:40 36.88228 30.80504 184 ft 8 kts 185°
2026-05-07 16:40 36.88201 30.80501 184 ft 3 kts 185°
2026-05-07 16:40 36.88178 30.80498 184 ft 3 kts 186°
2026-05-07 16:40 36.88157 30.80501 184 ft 3 kts 158°
2026-05-07 16:41 36.88137 30.80518 184 ft 3 kts 136°
2026-05-07 16:41 36.88123 30.80549 184 ft 5 kts 109°
2026-05-07 16:41 36.88114 30.80597 184 ft 0 kts 98°
2026-05-07 16:43 36.88110 30.80629 184 ft 7 kts 98°
2026-05-07 16:43 36.88106 30.80710 184 ft 6 kts 70°
2026-05-07 16:43 36.88129 30.80726 184 ft 0 kts
2026-05-07 16:44 36.88161 30.80735 184 ft 15 kts 15°
2026-05-07 16:44 36.88394 30.80759 184 ft 60 kts
2026-05-07 16:44 36.88978 30.80842 184 ft 106 kts
2026-05-07 16:45 36.89846 30.80963 185 ft 144 kts
2026-05-07 16:45 36.90889 30.81044 464 ft 157 kts 11°
2026-05-07 16:45 36.91931 30.81418 1169 ft 168 kts 26°
2026-05-07 16:45 36.93024 30.82060 1908 ft 180 kts 26°
2026-05-07 16:46 36.94199 30.82682 2521 ft 193 kts 23°
2026-05-07 16:46 36.95507 30.83317 3097 ft 210 kts 21°
2026-05-07 16:46 36.96878 30.84022 3862 ft 218 kts 27°
2026-05-07 16:46 36.98029 30.85215 4738 ft 223 kts 56°
2026-05-07 16:47 36.98450 30.86337 5266 ft 229 kts 72°
2026-05-07 16:47 36.98624 30.88367 5904 ft 247 kts 90°
2026-05-07 16:47 36.98459 30.90598 6523 ft 264 kts 94°
2026-05-07 16:47 36.98237 30.92925 7180 ft 278 kts 94°
2026-05-07 16:48 36.98016 30.95322 7766 ft 283 kts 94°
2026-05-07 16:48 36.97801 30.97788 8582 ft 287 kts 94°
2026-05-07 16:48 36.97532 31.00221 9653 ft 286 kts 99°
2026-05-07 16:48 36.96872 31.02608 10380 ft 298 kts 116°
2026-05-07 16:49 36.95583 31.04730 10864 ft 319 kts 134°
2026-05-07 16:49 36.93813 31.06478 11290 ft 338 kts 145°
2026-05-07 16:49 36.91642 31.07828 11741 ft 356 kts 162°
2026-05-07 16:49 36.89156 31.08215 12467 ft 362 kts 183°
2026-05-07 16:50 36.86673 31.07906 13230 ft 367 kts 188°
2026-05-07 16:50 36.84101 31.07490 13968 ft 373 kts 188°
2026-05-07 16:50 36.81538 31.07081 14711 ft 377 kts 188°
2026-05-07 16:50 36.78907 31.06681 15424 ft 383 kts 188°
2026-05-07 16:51 36.76249 31.06289 16191 ft 386 kts 189°
2026-05-07 16:51 36.73576 31.05897 16904 ft 390 kts 189°
2026-05-07 16:51 36.70880 31.05505 17551 ft 395 kts 189°
2026-05-07 16:51 36.68130 31.05020 18239 ft 397 kts 194°
2026-05-07 16:52 36.65517 31.04018 18834 ft 396 kts 209°
2026-05-07 16:52 36.63254 31.02166 19494 ft 392 kts 225°
2026-05-07 16:52 36.61359 30.99736 20100 ft 390 kts 236°
2026-05-07 16:52 36.59889 30.96921 20682 ft 389 kts 247°
2026-05-07 16:53 36.58893 30.93842 21286 ft 386 kts 258°
2026-05-07 16:53 36.58392 30.90560 21874 ft 383 kts 269°
2026-05-07 16:53 36.58410 30.87298 22393 ft 382 kts 280°
2026-05-07 16:53 36.58859 30.84058 22989 ft 381 kts 285°
2026-05-07 16:54 36.59436 30.80822 23530 ft 385 kts 286°
2026-05-07 16:54 36.59981 30.77548 24114 ft 388 kts 284°
2026-05-07 16:54 36.60451 30.74275 24606 ft 393 kts 283°
2026-05-07 16:54 36.60862 30.70885 25235 ft 394 kts 281°
2026-05-07 16:55 36.61219 30.67508 25690 ft 399 kts 281°
2026-05-07 16:55 36.61544 30.64071 26272 ft 400 kts 280°
2026-05-07 16:55 36.61845 30.60647 26779 ft 402 kts 279°
2026-05-07 16:55 36.62133 30.57208 27274 ft 405 kts 279°
2026-05-07 16:56 36.62421 30.53694 27707 ft 408 kts 279°
2026-05-07 16:56 36.62702 30.50177 28247 ft 409 kts 279°
2026-05-07 16:56 36.63266 30.43057 29064 ft 416 kts 279°
2026-05-07 16:57 36.63545 30.39482 29607 ft 416 kts 279°
2026-05-07 16:57 36.63826 30.35886 29921 ft 421 kts 279°
2026-05-07 16:57 36.64132 30.32276 30415 ft 421 kts 280°
2026-05-07 16:57 36.64639 30.28682 30916 ft 420 kts 285°
2026-05-07 16:58 36.65443 30.25229 31285 ft 421 kts 291°
2026-05-07 16:58 36.66579 30.21887 31750 ft 420 kts 298°
2026-05-07 16:58 36.68065 30.18761 32104 ft 420 kts 307°
2026-05-07 16:58 36.69938 30.16012 32122 ft 418 kts 314°
2026-05-07 16:59 36.74101 30.11057 32172 ft 413 kts 316°
2026-05-07 16:59 36.78290 30.06074 32232 ft 415 kts 315°
2026-05-07 17:00 36.82335 30.00989 32229 ft 413 kts 314°
2026-05-07 17:00 36.86575 29.96087 32237 ft 415 kts 319°
2026-05-07 17:01 36.90994 29.91446 32250 ft 415 kts 320°
2026-05-07 17:01 36.95406 29.86820 32253 ft 414 kts 319°
2026-05-07 17:02 36.99829 29.82146 32255 ft 417 kts 319°
2026-05-07 17:02 37.04263 29.77476 32249 ft 418 kts 319°
2026-05-07 17:03 37.08696 29.72793 32246 ft 418 kts 319°
2026-05-07 17:03 37.13098 29.68069 32236 ft 417 kts 317°
2026-05-07 17:04 37.16737 29.62464 32228 ft 418 kts 300°
2026-05-07 17:04 37.18880 29.55687 32223 ft 422 kts 289°
2026-05-07 17:05 37.20414 29.48623 32210 ft 421 kts 287°
2026-05-07 17:05 37.21841 29.41502 32204 ft 422 kts 286°
2026-05-07 17:06 37.23272 29.34410 32197 ft 423 kts 286°
2026-05-07 17:06 37.24734 29.27265 32193 ft 423 kts 286°
2026-05-07 17:07 37.26195 29.20160 32191 ft 421 kts 286°
2026-05-07 17:07 37.27657 29.13037 32189 ft 423 kts 286°
2026-05-07 17:08 37.29111 29.05928 32187 ft 423 kts 286°
2026-05-07 17:08 37.30565 28.98794 32186 ft 422 kts 285°
2026-05-07 17:09 37.32017 28.91647 32182 ft 422 kts 286°
2026-05-07 17:09 37.33458 28.84541 32176 ft 421 kts 285°
2026-05-07 17:10 37.34901 28.77392 32172 ft 421 kts 286°
2026-05-07 17:10 37.36338 28.70280 32170 ft 421 kts 286°
2026-05-07 17:11 37.37804 28.63204 32178 ft 420 kts 287°
2026-05-07 17:11 37.39278 28.56136 32181 ft 419 kts 287°
2026-05-07 17:12 37.40735 28.49103 32188 ft 419 kts 287°
2026-05-07 17:12 37.42197 28.42014 32184 ft 419 kts 287°
2026-05-07 17:13 37.43650 28.34936 32181 ft 419 kts 286°
2026-05-07 17:13 37.45104 28.27828 32181 ft 420 kts 286°
2026-05-07 17:14 37.46544 28.20762 32180 ft 419 kts 286°
2026-05-07 17:14 37.47982 28.13676 32179 ft 417 kts 287°
2026-05-07 17:15 37.49403 28.06636 32179 ft 416 kts 286°
2026-05-07 17:15 37.50835 27.99557 32172 ft 415 kts 286°
2026-05-07 17:16 37.52249 27.92538 32173 ft 416 kts 286°
2026-05-07 17:16 37.53660 27.85487 32166 ft 414 kts 286°
2026-05-07 17:17 37.55061 27.78473 32167 ft 417 kts 286°
2026-05-07 17:17 37.56457 27.71453 32161 ft 413 kts 287°
2026-05-07 17:18 37.57843 27.64467 32150 ft 414 kts 287°
2026-05-07 17:18 37.59229 27.57449 32132 ft 414 kts 287°
2026-05-07 17:19 37.60599 27.50499 31920 ft 412 kts 287°
2026-05-07 17:19 37.61307 27.46967 31317 ft 412 kts 288°
2026-05-07 17:19 37.62152 27.43560 30652 ft 408 kts 292°
2026-05-07 17:20 37.63276 27.40313 30001 ft 407 kts 299°
2026-05-07 17:20 37.64761 27.37292 29341 ft 406 kts 308°
2026-05-07 17:20 37.66656 27.34655 28678 ft 403 kts 317°
2026-05-07 17:20 37.68814 27.32427 28017 ft 401 kts 323°
2026-05-07 17:21 37.71058 27.30414 27360 ft 399 kts 324°
2026-05-07 17:21 37.73335 27.28447 26706 ft 397 kts 325°
2026-05-07 17:21 37.75599 27.26480 26054 ft 394 kts 324°
2026-05-07 17:21 37.77825 27.24514 25495 ft 390 kts 324°
2026-05-07 17:22 37.80024 27.22536 24971 ft 388 kts 324°
2026-05-07 17:22 37.82244 27.20562 24442 ft 387 kts 326°
2026-05-07 17:22 37.84574 27.18882 23915 ft 385 kts 332°
2026-05-07 17:22 37.87030 27.17594 23391 ft 385 kts 339°
2026-05-07 17:23 37.89590 27.16618 22868 ft 383 kts 343°
2026-05-07 17:23 37.92173 27.15813 22356 ft 379 kts 344°
2026-05-07 17:23 37.94741 27.15072 21839 ft 376 kts 345°
2026-05-07 17:23 37.97259 27.14355 21346 ft 374 kts 345°
2026-05-07 17:24 37.99806 27.13625 20838 ft 376 kts 345°
2026-05-07 17:24 38.02341 27.12891 20340 ft 373 kts 345°
2026-05-07 17:24 38.04863 27.12154 19813 ft 371 kts 345°
2026-05-07 17:24 38.07352 27.11418 19317 ft 368 kts 344°
2026-05-07 17:25 38.09815 27.10685 18828 ft 363 kts 345°
2026-05-07 17:25 38.12293 27.09944 18310 ft 359 kts 344°
2026-05-07 17:25 38.14685 27.09226 17824 ft 355 kts 344°
2026-05-07 17:25 38.17101 27.08497 17340 ft 352 kts 344°
2026-05-07 17:26 38.19449 27.07786 16835 ft 348 kts 344°
2026-05-07 17:26 38.21798 27.07075 16319 ft 345 kts 344°
2026-05-07 17:26 38.24125 27.06371 15831 ft 342 kts 345°
2026-05-07 17:26 38.26432 27.05672 15326 ft 339 kts 345°
2026-05-07 17:27 38.28715 27.04980 14833 ft 337 kts 344°
2026-05-07 17:27 38.31003 27.04287 14339 ft 334 kts 345°
2026-05-07 17:27 38.33245 27.03608 13847 ft 332 kts 345°
2026-05-07 17:27 38.35480 27.02931 13358 ft 329 kts 344°
2026-05-07 17:28 38.37700 27.02257 12892 ft 327 kts 345°
2026-05-07 17:28 38.39899 27.01591 12427 ft 325 kts 345°
2026-05-07 17:28 38.42076 27.00928 11943 ft 323 kts 345°
2026-05-07 17:28 38.44258 27.00265 11460 ft 318 kts 345°
2026-05-07 17:29 38.46368 26.99624 10997 ft 310 kts 345°
2026-05-07 17:29 38.48463 26.99007 10511 ft 304 kts 348°
2026-05-07 17:29 38.50548 26.98742 10015 ft 299 kts
2026-05-07 17:29 38.52526 26.99458 9509 ft 297 kts 30°
2026-05-07 17:30 38.53970 27.01271 9016 ft 296 kts 57°
2026-05-07 17:30 38.54701 27.03695 8550 ft 295 kts 75°
2026-05-07 17:30 38.54946 27.06294 8034 ft 296 kts 95°
2026-05-07 17:30 38.54267 27.08712 7545 ft 295 kts 124°
2026-05-07 17:31 38.52787 27.10464 7061 ft 291 kts 149°
2026-05-07 17:31 38.50918 27.11385 6544 ft 286 kts 166°
2026-05-07 17:31 38.48960 27.11613 5970 ft 284 kts 185°
2026-05-07 17:31 38.47053 27.11146 5642 ft 272 kts 194°
2026-05-07 17:32 38.45383 27.10140 5366 ft 262 kts 222°
2026-05-07 17:32 38.44470 27.08248 5119 ft 252 kts 258°
2026-05-07 17:32 38.44572 27.06103 4874 ft 243 kts 294°
2026-05-07 17:32 38.45209 27.04937 4717 ft 237 kts 319°
2026-05-07 17:33 38.47190 27.04221 4416 ft 226 kts 11°
2026-05-07 17:33 38.48483 27.05241 4171 ft 223 kts 52°
2026-05-07 17:33 38.48925 27.07104 3926 ft 223 kts 93°
2026-05-07 17:33 38.48328 27.08851 3689 ft 216 kts 130°
2026-05-07 17:34 38.47274 27.10202 3440 ft 212 kts 136°
2026-05-07 17:34 38.46228 27.11481 3187 ft 205 kts 135°
2026-05-07 17:34 38.45221 27.12698 3012 ft 195 kts 140°
2026-05-07 17:34 38.44059 27.13264 2978 ft 170 kts 186°
2026-05-07 17:35 38.42993 27.12759 3031 ft 164 kts 207°
2026-05-07 17:35 38.41943 27.12223 3005 ft 160 kts 191°
2026-05-07 17:35 38.40825 27.12090 2991 ft 161 kts 182°
2026-05-07 17:35 38.39687 27.12274 2694 ft 164 kts 166°
2026-05-07 17:36 38.38629 27.12655 2564 ft 155 kts 165°
2026-05-07 17:36 38.37557 27.13039 2423 ft 168 kts 168°
2026-05-07 17:36 38.36418 27.13389 2225 ft 164 kts 169°
2026-05-07 17:36 38.35275 27.13688 1849 ft 170 kts 169°
2026-05-07 17:37 38.34122 27.14021 1405 ft 174 kts 169°
2026-05-07 17:37 38.32957 27.14370 1030 ft 167 kts 169°
2026-05-07 17:37 38.31855 27.14701 738 ft 157 kts 169°
2026-05-07 17:37 38.30816 27.15012 500 ft 149 kts 170°
2026-05-07 17:38 38.29858 27.15290 423 ft 120 kts 166°
2026-05-07 17:38 38.29174 27.15496 416 ft 83 kts 166°
2026-05-07 17:38 38.28722 27.15632 413 ft 34 kts 158°
2026-05-07 17:38 38.28599 27.15659 411 ft 7 kts 206°
2026-05-07 17:39 38.28578 27.15600 410 ft 7 kts 258°
2026-05-07 17:39 38.28566 27.15531 409 ft 8 kts 257°
2026-05-07 17:39 38.28557 27.15461 409 ft 7 kts 278°
2026-05-07 17:39 38.28589 27.15425 409 ft 5 kts 340°
2026-05-07 17:40 38.28635 27.15411 410 ft 10 kts 346°
2026-05-07 17:40 38.28737 27.15379 411 ft 19 kts 347°
2026-05-07 17:40 38.28891 27.15332 412 ft 23 kts 346°
2026-05-07 17:40 38.28994 27.15299 413 ft 10 kts 327°
2026-05-07 17:41 38.29023 27.15234 413 ft 7 kts 320°
2026-05-07 17:41 38.29071 27.15211 413 ft 6 kts 345°
2026-05-07 17:41 38.29111 27.15201 413 ft 5 kts 347°
2026-05-07 17:41 38.29161 27.15186 413 ft 10 kts 344°
2026-05-07 17:42 38.29255 27.15156 413 ft 17 kts 346°
2026-05-07 17:42 38.29347 27.15126 413 ft 7 kts 332°
2026-05-07 17:42 38.29358 27.15080 413 ft 5 kts 262°
2026-05-07 17:42 38.29353 27.15047 413 ft 0 kts 257°
2026-05-07 17:43 38.29353 27.15045 413 ft 0 kts 257°